This is the latest recevied weather packets stored in our database for station/object OE3KJN-13. If no packets are shown the sender has not sent any weather packets the latest 1 day(s).
| Time | Temp. | Humidity | Pressure | Rain* | Wind** | Luminosity | Snow |
|---|---|---|---|---|---|---|---|
| 1777984125 | 29.44° C | 100% | 0 hPa | 0 mm | 4.92 m/s, 206° | - | - |
| 1777983825 | 28.33° C | 100% | 0 hPa | 0 mm | 3.13 m/s, 275° | - | - |
| 1777983525 | 28.33° C | 100% | 0 hPa | 0 mm | 0.45 m/s, 84° | - | - |
| 1777983225 | 28.33° C | 100% | 0 hPa | 0 mm | 5.36 m/s, 254° | - | - |
| 1777982924 | 28.33° C | 100% | 0 hPa | 0 mm | 6.26 m/s, 258° | - | - |
| 1777982624 | 28.33° C | 100% | 0 hPa | 0 mm | 4.47 m/s, 237° | - | - |
| 1777982324 | 28.33° C | 100% | 0 hPa | 0 mm | 6.71 m/s, 275° | - | - |
| 1777982023 | 28.33° C | 100% | 0 hPa | 0 mm | 4.47 m/s, 322° | - | - |
| 1777981723 | 28.33° C | 100% | 0 hPa | 0 mm | 6.26 m/s, 275° | - | - |
| 1777981423 | 28.33° C | 100% | 0 hPa | 0 mm | 2.24 m/s, 317° | - | - |
| 1777981123 | 28.33° C | 100% | 0 hPa | 0 mm | 4.02 m/s, 243° | - | - |
| 1777980822 | 28.89° C | 100% | 0 hPa | 0 mm | 4.47 m/s, 247° | - | - |
| 1777980522 | 27.78° C | 100% | 0 hPa | 0 mm | 3.58 m/s, 265° | - | - |
| 1777980222 | 28.33° C | 100% | 0 hPa | 0 mm | 6.26 m/s, 237° | - | - |
| 1777979921 | 28.33° C | 100% | 0 hPa | 0 mm | 4.02 m/s, 275° | - | - |
| 1777979621 | 28.33° C | 100% | 0 hPa | 0 mm | 3.58 m/s, 277° | - | - |
| 1777979321 | 28.33° C | 100% | 0 hPa | 0 mm | 4.02 m/s, 253° | - | - |
| 1777979020 | 28.33° C | 100% | 0 hPa | 0 mm | 6.26 m/s, 279° | - | - |
| 1777978720 | 28.33° C | 100% | 0 hPa | 0 mm | 2.68 m/s, 305° | - | - |
| 1777978420 | 28.89° C | 100% | 0 hPa | 0 mm | 8.05 m/s, 215° | - | - |
| 1777978120 | 28.33° C | 100% | 0 hPa | 0 mm | 3.13 m/s, 268° | - | - |
| 1777977819 | 28.89° C | 100% | 0 hPa | 0 mm | 9.83 m/s, 232° | - | - |
| 1777977519 | 28.89° C | 100% | 0 hPa | 0 mm | 3.58 m/s, 253° | - | - |
| 1777977219 | 28.33° C | 100% | 0 hPa | 0 mm | 4.47 m/s, 215° | - | - |
| 1777976918 | 28.89° C | 100% | 0 hPa | 0 mm | 4.47 m/s, 255° | - | - |
* Rain latest hour (hover to see other rain measurements)
** Current wind speed in m/s (hover to see current wind gust speed)